HISPASAT 30W-6

Last updated on Wed Sep 17 2025 00:02:50 GMT+0000 (Coordinated Universal Time)

1 43228U 18023A 25259.36366830 -.00000235 00000+0 00000+0 0 9990 2 43228 0.0475 36.2646 0002806 121.7305 298.4737 1.00270568 27669
UTC large
Height (km)
Speed (km/s)
/
Latitude / Longitude
Inclination (degrees)
Orbital Period (minutes)
Azimuth
Elevation
Range (km)
Doppler Factor

Next 0 passes for location: London (51.5072 / 0.1276)

Sorry there are no passes over London.